cssdesignawards.com alexa rank chart, cssdesignawards.com alexa rank daily changes

cssdesignawards.com alexa rank chart, cssdesignawards.com alexa rank daily changes

cssdesignawards.com
Actual rank:
42 647

RANK HISTORY

Date Rank Diff
2017/06/28 42 647 +3
2017/06/27 42 644 +625
2017/06/26 42 019 +862
2017/06/25 41 157 -510
2017/06/24 41 667 -87
2017/06/23 41 754 -803
2017/06/22 42 557 -363
2017/06/21 42 920 +412
2017/06/20 42 508 +787
2017/06/19 41 721 +1 078
2017/06/18 40 643 +336
2017/06/17 40 307 -282
2017/06/16 40 589 -519
2017/06/15 41 108 -772
2017/06/14 41 880 -1 030
2017/06/13 42 910 +804
2017/06/12 42 106 +275
2017/06/11 41 831 +281
2017/06/10 41 550 +623
2017/06/09 40 927 -1 012
2017/06/08 41 939 -859
2017/06/07 42 798 +5
2017/06/06 42 793 +504
2017/06/05 42 289 +655
2017/06/04 41 634 -20
2017/06/03 41 654 -966
2017/06/02 42 620 -1 571
2017/06/01 44 191 +82
2017/05/31 44 109 -460
2017/05/30 44 569 +1 170
2017/05/29 43 399 +384
2017/05/28 43 015 -98
2017/05/27 43 113 +456
2017/05/26 42 657 +5
2017/05/25 42 652 -902
2017/05/24 43 554 -595
2017/05/23 44 149 +829
2017/05/22 43 320 +520
2017/05/21 42 800 -566
2017/05/20 43 366 -700
2017/05/19 44 066 -737
2017/05/18 44 803 -855
2017/05/17 45 658 -412
2017/05/16 46 070 +109
2017/05/15 45 961 +595
2017/05/14 45 366 +734
2017/05/13 44 632 +126
2017/05/12 44 506 +376
2017/05/11 44 130 -747
2017/05/10 44 877 -1 101
2017/05/09 45 978 +1 447
2017/05/08 44 531 +666
2017/05/07 43 865 -294
2017/05/06 44 159 +58
2017/05/05 44 101 -245
2017/05/04 44 346 -540
2017/05/03 44 886 -4
2017/05/02 44 890 +408
2017/05/01 44 482 +6
2017/04/30 44 476 +82
2017/04/29 44 394

WIDGET FOR YOUR SITE

DOMAINS WITH THE NEAREST RANK

Domain Rank
wd361.com 42 642
modele-cv-lettre.com 42 643
8a0f7fd3753.com 42 644
dit.ie 42 645
zharar.com 42 646
cssdesignawards.com 42 647
tech-connect.biz 42 648
chairish.com 42 649
flashsaletricks.com 42 650
yesmovies.org 42 651
guhtjoqtobac.com 42 652

DOMAINS WITH THE NEAREST RANK BY TLD .com

Domain Rank
convertdocsonline.com 42 639
wd361.com 42 642
modele-cv-lettre.com 42 643
8a0f7fd3753.com 42 644
zharar.com 42 646
cssdesignawards.com 42 647
chairish.com 42 649
flashsaletricks.com 42 650
guhtjoqtobac.com 42 652
humankinetics.com 42 653
next-engine.com 42 654